Regional Weather Roundup
Issued by NWS

Home | Current Version | Previous Version | Text Only | Print | Product List | Glossary Off
Versions: 1 2 3 4 5 6 7 8 9 10 11 12 13 14 15 16 17 18 19 20 21 22 23 24 25 26 27 28 29 30 31 32 33 34 35 36 37 38 39 40 41 42 43 44 45 46 47 48 49 50

000
ASUS45 KBOU 031107
RWRCO

WEATHER ROUNDUP FOR COLORADO
NATIONAL WEATHER SERVICE DENVER/BOULDER CO
500 AM MDT WED JUN 03 2015

NOTE: "FAIR" INDICATES FEW OR NO CLOUDS BELOW 12000 FEET WITH NO
SIGNIFICANT WEATHER AND/OR OBSTRUCTIONS TO VISIBILITY.

COZ001>005-013-030-031-031200-
...NORTHWEST COLORADO...

CITY           SKY/WX    TMP DP  RH WIND       PRES   REMARKS
CRAIG          CLEAR     40  35  83 CALM      30.06R
HAYDEN         CLEAR     45  32  61 SE6       30.07R
MEEKER         CLEAR     47  32  56 E17       30.05S
MOUNT WERNER   NOT AVBL
STEAMBOAT SPGS CLEAR     39  34  81 CALM      30.10R
WALDEN         CLEAR     36  30  80 S6        30.16S
$$

COZ006>008-011-031200-
...WEST CENTRAL VALLEYS...

CITY           SKY/WX    TMP DP  RH WIND       PRES   REMARKS
GRAND JUNCTION CLEAR     53  29  39 E7        29.92R
MONTROSE       CLEAR     57  27  31 SE10      30.01S
EAGLE          CLEAR     54  43  66 CALM      30.11S
RIFLE          CLEAR     44  34  67 S5        30.00R
DELTA          CLEAR     55  30  39 NE7       29.98S
NUCLA          CLEAR     54  27  35 CALM      30.06R
$$

COZ017>023-064>068-031200-
...SOUTHWEST COLORADO...

CITY           SKY/WX    TMP DP  RH WIND       PRES   REMARKS
DURANGO        PTCLDY    40  32  73 CALM      30.12R
CORTEZ         CLEAR     44  32  62 NE7       30.06R
PAGOSA SPRINGS PTCLDY    42  26  52 CALM      30.17S
TELLURIDE      CLEAR     47  24  39 SE7       30.25S
WOLF CREEK PAS NOT AVBL
$$

COZ009-010-012-014-032>034-037-058>063-031200-
...CENTRAL COLORADO...

CITY           SKY/WX    TMP DP  RH WIND       PRES   REMARKS
ASPEN          CLEAR     46  26  45 SW10      30.13S
BUENA VISTA    CLEAR     44  24  46 NW7       30.17S
COPPER MTN     CLEAR     45   9  23 SW10G16   30.40F
BERTHOUD PASS  FAIR      36  30  80 W20G35    30.42R
COTTONWOOD PAS NOT AVBL
GUNNISON       PTCLDY    37  27  65 CALM      30.21R
KREMMLING      CLEAR     37  32  81 CALM      30.16R
LEADVILLE      CLEAR     31  20  63 VRB3      30.26S
MONARCH PASS   CLEAR     41  16  36 W22       30.49F
SALIDA         CLEAR     49  26  40 W6        30.22R
SUNLIGHT       CLEAR     46  18  31 CALM      30.32S
WILKERSON PASS CLEAR     45   9  23 W7        30.38S
$$

COZ069>075-031200-
...SAN LUIS VALLEY/SANGRE DE CRISTO MOUNTAINS...

CITY           SKY/WX    TMP DP  RH WIND       PRES   REMARKS
ALAMOSA        MOCLDY    37  28  70 CALM      30.15R
LA VETA PASS   PTCLDY   N/A N/A N/A MISG      30.29R
SAGUACHE       PTCLDY    43  27  52 NW9       30.17S
$$

COZ035-036-038>040-031200-
...NORTHERN COLORADO FRONT RANGE...

CITY           SKY/WX    TMP DP  RH WIND       PRES   REMARKS
DENVER INTL AP PTCLDY    57  50  77 N10       29.99R
DMNS CITY PARK   N/A     57  35  44 N8        30.00R
AURORA         PTCLDY    54  39  56 N9G18     30.01R
FRONT RANGE AP CLEAR     57  52  82 N10       30.00R
ERIE MUNI ARPT NOT AVBL
BOULDER MUN AP CLEAR     55  34  44 E3        30.01R
CENTENNIAL     CLEAR     57  31  37 SW5       29.99R
BROOMFIELD     CLEAR     59  39  47 NE9       30.02R
FORT COLLINS   CLEAR     55  45  67 NE14      30.01R
LONGMONT       CLEAR     54  41  60 NE5       30.01R
$$

COZ041-046-047-076>085-087-088-031200-
...PIKES PEAK/PALMER DIVIDE AND SOUTHERN FOOTHILLS...

CITY           SKY/WX    TMP DP  RH WIND       PRES   REMARKS
COLO. SPRINGS  CLEAR     58  29  33 N15       30.00S
A. F. ACADEMY  CLEAR     51  29  41 NW9       30.03R
ELLICOTT       CLEAR    N/A N/A N/A N8        29.98R
FALCON         CLEAR     59  28  30 NW8       30.06S
FORT CARSON    CLEAR     57  29  35 NW12      29.96S
LIMON          CLEAR     53  49  86 NW7       29.92R
MONUMENT HILL  CLEAR     48  32  53 MISG      30.07S
TRINIDAD       CLEAR     50  35  56 SW9       29.97R
$$

COZ042>045-048>051-090-091-031200-
...NORTHEAST COLORADO...

CITY           SKY/WX    TMP DP  RH WIND       PRES   REMARKS
GREELEY ARPT   CLEAR     55  48  76 N10       29.98R
AKRON          CLOUDY    58  56  93 NE17G24   29.92R
BURLINGTON     CLEAR     58  53  84 W10       29.81R
WRAY           MOCLDY    62  59  91 NE21G31   29.87R
STERLING       CLEAR     55  55 100 N5        29.92R
HOLYOKE        NOT AVBL
FORT MORGAN    CLEAR     56  52  85 N17G24    29.94R
$$

COZ086-089-092>099-031200-
...SOUTHEAST COLORADO...

CITY           SKY/WX    TMP DP  RH WIND       PRES   REMARKS
PUEBLO         CLEAR     55  43  63 VRB5      29.89R
LA JUNTA       CLEAR     57  47  69 SW8       29.83R
LAMAR          NOT AVBL
SPRINGFIELD      N/A     57  42  57 SW13      29.85F
$$



USA.gov is the U.S. government's official web portal to all federal, state and local government web resources and services.